Terminal Aerodrome Forecast
Issued by NWS Newport/Morehead City, NC

Home | Current Version | Previous Version | Text Only | Print | Product List | Glossary On
Versions: 1 2 3 4 5 6 7 8 9 10 11 12 13 14 15 16 17
000
FTUS42 KMHX 290522
TAFEWN
TAF
KEWN 290522Z 2906/3006 01010G15KT P6SM SKC
     FM291400 35008KT P6SM SKC
     FM292100 28006KT P6SM SKC
     FM300500 21004KT P6SM SCT200=

USA.gov is the U.S. government's official web portal to all federal, state and local government web resources and services.